STARLINK-5479, 55662

Orbit data source: Space-Track

STARLINK-5479, 55662 is a payload satellite owned by SpaceX/Seattle (US) in LEO that was launched on Fri, 17 Feb 2023 UTC via an FALCON 9 launch vehicle from the Air Force Western Test Range (AFWTR). Payload-class satellites include a variety of spacecraft equipped with specific instruments for various scientific and technological missions. These include communications satellites like Starlink; space stations such as the ISS; scientific satellites like the Hubble; Earth observation satellites from companies like Planet Labs, Umbra, and HawkEye 360; GPS; miniature CubeSats for education and research; and military/defense satellites.

Loading next visibility...
Identifier
55662, 2023-021AL
Orbit
LEO
Country
Flag of USUS
Related business
Manufacturer
SpaceX/Seattle
Mission
Operational Commercial Communications
Bus & Motor
STARLINK, Unknown motor
Mass
305 kg wet, ~290 kg dry
Launch date (UTC)
2023-02-17 (3 years ago)
Launch vehicle
FALCON 9
Launch site
Air Force Western Test Range (AFWTR)
Object type
Payload
Rocket body
Debris
Shape & HBR
Box + 1 Pan, 10.1 m
Radar Cross Section
13.562 m², Large (>1 m²)

Expand to show TLE details & history
Last TLE update: 2 days ago

TLE from 2 days ago
0 STARLINK-5479
1 55662U 23021AL  26171.45218324 -.00002208  00000-0 -18106-3 0  9991
2 55662  69.9992 265.5120 0003240 266.4781  93.6007 14.97534274184671
Epoch: 2026-06-20T10:51Z
TLE epoch observation values (Epoch: 2026-06-20T10:51:08.631Z)
Latitude
-0.00006°
Longitude
-165.94059°
Altitude
577.083 km
Speed
7.572 km/s
True Right ascension
17h 42m 02s
True Declination
0° 00' 00"
Sunlit
Object was in full shadow at epoch
Visualization orbit readout
Latitude
Unknown
Longitude
Unknown
Altitude
Unknown
Speed
Unknown
Apparent Right ascension
Unknown
Apparent Declination
Unknown
Sunlit
N/A
Visualization observer readout
Local Sidereal Time
21:44:00
Azimuth
Unknown
Elevation
Unknown
Doppler factor
Unknown
Orbital elements
Apogee altitude
574.719 km
Perigee altitude
570.215 km
Semi-major axis
6,950.604 km
Eccentricity
0.00032
Inclination
69.9992°
RAAN
265.512°
Arg. of periapsis
266.4781°
True anomaly
93.63775°
Mean anomaly
93.6007°
Eccentric anomaly
93.61923°
Mean motion
3.7455 °/min
Orbital period
96.12 mins
BSTAR
-0.00018106
Loading maneuver chart data...
Computing Atmospheric mass density...

Documentation

Showing up to 5 results
|